Location: Caoba
(9.7667°N, 67.4833°W)
Time: 20:50:16
(UTC+00:00)

GOES 2 Rocket - Pass Details

Date: 06 December 2024
Orbit: 569 x 1662 km, 28.4° (Epoch: 14 January)

Event Time Altitude Azimuth Distance (km) Brightness Sun altitude
Rises 01:12:11 0° 226° (SW) 4,393 8.1 -43.1°
Reaches altitude 10° 01:15:44 10° 219° (SW) 3,242 7.2 -43.9°
Enters shadow 01:19:01 23° 205° (SSW) 2,241 6.1 -44.7°
